User: anonymous   Login
Location: Dentlein
(49.1477°N, 10.4231°E)
Time: 20:32:01
(UTC+00:00)
Language:

Cosmos 2181 Rocket - Orbit

View from above orbital plane
View from above orbital plane
View from above satellite
View from above satellite

Ground track
Ground track

The orbit data is extracted from the following two-line orbital elements,

1 21903U 92012B   24206.16640062  .00000077  00000-0  64564-4 0  9991
2 21903  82.9348  62.1088 0043965  63.2827  57.4386 13.74660210623656
Epoch (UTC): 24 July 2024 03:59:37
Eccentricity: 0.0043965
inclination: 82.9348°
perigee height: 950 km
apogee height: 1015 km
right ascension of ascending node: 62.1088°
argument of perigee: 63.2827°
revolutions per day: 13.74660210
mean anomaly at epoch: 57.4386°
orbit number at epoch: 62365

The dashed part of the orbit path shows where the satellite is in the earth's shadow,  

DLR